Regional Weather Roundup
Issued by NWS

Home | Current Version | Previous Version | Graphics & Text | Print | Product List | Glossary On
Versions: 1 2 3 4 5 6 7 8 9 10 11 12 13 14 15 16 17 18 19 20 21 22 23 24 25 26 27 28 29 30 31 32 33 34 35 36 37 38 39 40 41 42 43 44 45 46 47 48 49 50
314
ASUS43 KIND 250809
RWRIN

WEATHER ROUNDUP FOR INDIANA
NATIONAL WEATHER SERVICE INDIANAPOLIS IN
400 AM EDT SAT MAR 25 2017

NOTE: "FAIR" INDICATES FEW OR NO CLOUDS BELOW 12,000 FEET WITH NO
SIGNIFICANT WEATHER AND/OR OBSTRUCTIONS TO VISIBILITY.

* - STATION DOES NOT REPORT WEATHER SUCH AS PRECIPITATION OR FOG.

+ - STATION NOT QUALITY CONTROLLED BY THE NATIONAL WEATHER SERVICE.
    USE DATA WITH CAUTION...ESPECIALLY DEWPOINT AND RELATIVE
    HUMIDITY OBSERVATIONS.

INZ001>003-010>013-019-020-250900-
NORTHWEST INDIANA

CITY           SKY/WX    TMP DP  RH WIND       PRES   REMARKS
GARY /AIRPORT/ RAIN      40  38  93 N9        30.07F
KNOX *+        CLOUDY    43  28  56 N5        30.02F
LA PORTE +     LGT RAIN  41  39  95 NW7       30.04S
MICHIGAN CITY+ CLOUDY    39  39 100 W7        30.06R
MONTICELLO +   CLOUDY    58  51  77 CALM      30.00F
RENSSELAER +   LGT RAIN  45  43  93 N6        30.02F
VALPARAISO     LGT RAIN  42  40  92 N9        30.04S FOG

$$

LMZ046-743>745-250900-
SOUTHERN LAKE MICHIGAN

STATION/POSITION TIME  TEMP    WIND        PRES    WAVE
                       AIR SEA DIR/SP/G            HT
                 (UTC) (F)     (DEG/KT/KT) (MB)    (FT)
BURNS HARBOR     0740   38     310/  9/ 12 1018.3S
MICHIGAN CITY    0740   38     260/ 12/ 12   N/A

$$

INZ004-005-014>016-021>024-250900-
NORTH CENTRAL INDIANA

CITY           SKY/WX    TMP DP  RH WIND       PRES   REMARKS
GOSHEN         CLOUDY    55  50  83 CALM      30.01F
LOGANSPORT +   CLOUDY    55  50  82 S6        30.02F
PERU/GRISSOM   CLOUDY    58  54  85 S7        30.01S
SOUTH BEND     CLOUDY    43  41  93 CALM      30.02F
WARSAW +       CLOUDY    59  52  77 CALM      30.02F

$$

INZ006>009-017-018-025>027-250900-
NORTHEAST INDIANA

CITY           SKY/WX    TMP DP  RH WIND       PRES   REMARKS
ANGOLA *+      CLOUDY    55  54  94 CALM      30.03S
AUBURN +       PTCLDY    55  50  82 CALM      30.04S
FORT WAYNE     CLOUDY    55  50  83 S9        30.04S
HUNTINGTON +   PTCLDY    59  52  78 SW6       30.03S
KENDALLVILLE + PTCLDY    58  52  82 SW3       30.04S

$$

INZ028-029-035-036-043>045-051>053-250900-
WEST CENTRAL INDIANA

CITY           SKY/WX    TMP DP  RH WIND       PRES   REMARKS
CRAWFORDSVL +  CLOUDY    58  52  79 SE8       30.01F
GREENCASTLE +  CLOUDY    59  52  77 S8        30.02F
LAFAYETTE      CLOUDY    62  52  69 S5        30.00F
TERRE HAUTE    PTCLDY    62  52  69 SE8       29.99F

$$

INZ030>032-037>040-046>048-054>057-064-065-250900-
CENTRAL INDIANA

CITY           SKY/WX    TMP DP  RH WIND       PRES   REMARKS
CP ATTERBURY + CLOUDY    61  52  72 S8        30.06F
FISHERS *+     CLOUDY    59  55  88 S9        30.04
FRANKFORT +    PTCLDY    59  53  80 S6        30.04S
GREENWOOD *+   CLOUDY    61  53  76 S6        30.05F
INDIANAPOLIS   CLOUDY    62  52  69 S9        30.03F
-EAGLE CREEK   PTCLDY    59  50  72 SE3       30.03F
KOKOMO +       CLOUDY    58  52  80 S7        30.03F
MARION +       CLOUDY    58  51  78 S6        30.04S HAZE
MT COMFORT *+  MOCLDY    59  52  77 S7        30.06S
SHELBYVILLE    MOCLDY    64  52  64 S10       30.05F
ZIONSVILLE +   CLOUDY    60  51  73 S9        30.04F

$$

INZ033-034-041-042-049-050-058-059-250900-
EAST CENTRAL INDIANA

CITY           SKY/WX    TMP DP  RH WIND       PRES   REMARKS
MUNCIE         CLOUDY    64  53  67 S13G20    30.05F
RICHMOND +     CLOUDY    54  50  87 S9        30.10F

$$

INZ060-061-067>069-081>083-085>088-250900-
SOUTHWEST INDIANA

CITY           SKY/WX    TMP DP  RH WIND       PRES   REMARKS
EVANSVILLE     MOCLDY    63  52  67 SE8       30.00F
HUNTINGBURG *+ CLOUDY    65  53  65 SE13G18   30.02F
WASHINGTON +   CLOUDY    62  50  64 CALM      30.00F

$$

INZ062-063-066-070>080-084-089>092-250900-
SOUTH CENTRAL AND SOUTHEAST INDIANA

CITY           SKY/WX    TMP DP  RH WIND       PRES   REMARKS
BEDFORD +      CLOUDY   N/A N/A N/A SE8       30.04F
BLOOMINGTON    CLOUDY    62  51  67 SE7       30.03F
MADISON *+     CLOUDY    61  50  67 SE6       30.10F
NORTH VERNON + MOCLDY    64  50  59 SE8       30.09F
SEYMOUR +      MOCLDY    63  52  67 SE8       30.06F

$$





USA.gov is the U.S. government's official web portal to all federal, state and local government web resources and services.